Date String (YYYY-MM-DD hh:mm:ss) UTC,Instrument flags,absolute air pressure of the measurement (hPa),sample flow rate (lpm),inlet stack bypass flow (lpm),air temperature of the measurement (°C),ambient temperature measured by the external sensor (°C),aerosol sample conditioner tube jacket temperature (°C),OPC LED temperature (°C),internal box temperature (°C),relative humidity of the measurement (%),span deviation,mass concentration of particles derived from Lorenz-Mie calculation of OPC scattering (μg/m³),mass concentration of particles derived from Lorenz-Mie calculation of OPC scattering (μg/m³),mass concentration of particles derived from Lorenz-Mie calculation of OPC scattering (μg/m³)
DateTimeUTC,F1_M11,P_M11,Q1_M11,Q2_M11,T1_M11,T2_M11,T3_M11,T4_M11,T5_M11,U1_M11,ZSPAN_M11,X0_M11,X2_M11,X1_M11
2023-11-18 21:00:00,SystemResetWarning,0825.9,5.01,000.00,026.2,025.4,000.0,034.2,027.7,14.2,0002.0,0011.35,0005.70,0005.05
2023-11-18 21:01:00,SystemResetWarning,0825.8,5.00,000.00,026.2,025.4,000.0,034.2,027.8,14.3,0002.0,0011.25,0005.66,0005.03
2023-11-18 21:02:00,SystemResetWarning,0825.8,5.00,000.00,026.2,023.9,000.0,034.2,027.6,14.2,0002.5,0010.83,0005.63,0005.01
2023-11-18 21:03:00,SystemResetWarning,0825.8,5.00,000.00,026.1,022.7,000.0,034.2,027.4,14.1,0002.0,0011.96,0005.65,0005.00
2023-11-18 21:04:00,SystemResetWarning,0825.8,5.02,000.00,026.0,022.7,000.0,034.1,027.1,14.1,0001.9,0012.03,0005.65,0004.99
2023-11-18 21:05:00,SystemResetWarning,0825.6,5.00,000.00,025.8,023.1,000.0,034.1,026.9,14.4,0001.3,0011.82,0005.60,0004.97
2023-11-18 21:06:00,SystemResetWarning,0825.6,5.00,000.00,025.8,023.4,000.0,034.1,026.9,14.5,0001.4,0011.67,0005.59,0004.97
2023-11-18 21:07:00,SystemResetWarning,0825.5,5.00,000.00,025.8,023.8,000.0,034.1,027.1,14.4,0001.3,0012.73,0005.59,0004.97
2023-11-18 21:08:00,SystemResetWarning,0825.4,5.00,000.00,025.8,024.0,000.0,034.1,027.2,14.2,0001.4,0012.70,0005.55,0004.95
2023-11-18 21:09:00,SystemResetWarning,0825.3,5.01,000.00,025.8,024.3,000.0,034.0,027.3,14.2,0001.8,0013.24,0005.51,0004.92
2023-11-18 21:10:00,SystemResetWarning,0825.3,5.00,000.00,025.9,024.5,000.0,034.1,027.3,14.1,0002.2,0013.37,0005.49,0004.87
2023-11-18 21:11:00,SystemResetWarning,0825.3,4.99,000.00,025.9,024.7,000.0,034.1,027.4,14.0,0002.6,0013.98,0005.49,0004.84
2023-11-18 21:12:00,SystemResetWarning,0825.3,5.00,000.00,025.9,024.8,000.0,034.1,027.5,13.9,0002.4,0013.98,0005.47,0004.81
2023-11-18 21:13:00,SystemResetWarning,0825.4,5.00,000.00,026.0,024.9,000.0,034.1,027.5,13.8,0002.5,0014.29,0005.47,0004.79
2023-11-18 21:14:00,SystemResetWarning,0825.5,5.00,000.00,026.0,025.1,000.0,034.1,027.6,13.7,0002.9,0013.63,0005.40,0004.75
2023-11-18 21:15:00,SystemResetWarning,0825.6,4.99,000.00,026.1,025.1,000.0,034.1,027.6,13.7,0003.4,0013.55,0005.37,0004.73
2023-11-18 21:16:00,SystemResetWarning,0825.6,5.00,000.00,026.1,025.2,000.0,034.1,027.7,13.6,0003.5,0014.18,0005.40,0004.72
2023-11-18 21:17:00,SystemResetWarning,0825.6,5.00,000.00,026.1,025.3,000.0,034.2,027.7,13.6,0003.9,0014.18,0005.40,0004.70
2023-11-18 21:18:00,SystemResetWarning,0825.7,5.00,000.00,026.2,025.4,000.0,034.2,027.7,13.5,0003.8,0013.38,0005.40,0004.67
2023-11-18 21:19:00,SystemResetWarning,0825.7,5.00,000.00,026.2,025.4,000.0,034.2,027.8,13.6,0003.9,0015.08,0005.38,0004.66
2023-11-18 21:20:00,SystemResetWarning,0825.6,4.99,000.00,026.2,025.1,000.0,034.2,027.8,13.6,0003.8,0014.92,0005.31,0004.62
2023-11-18 21:21:00,SystemResetWarning,0825.6,4.99,000.00,026.2,023.3,000.0,034.2,027.5,13.7,0003.5,0014.91,0005.27,0004.59
2023-11-18 21:22:00,SystemResetWarning,0825.6,5.03,000.00,026.1,022.6,000.0,034.2,027.3,13.9,0003.2,0014.87,0005.27,0004.58
2023-11-18 21:23:00,SystemResetWarning,0825.6,4.99,000.00,025.9,022.8,000.0,034.1,026.9,13.9,0002.9,0015.09,0005.21,0004.55
2023-11-18 21:24:00,SystemResetWarning,0825.6,5.00,000.00,025.8,023.2,000.0,034.1,026.8,14.0,0002.8,0014.67,0005.17,0004.53
2023-11-18 21:25:00,SystemResetWarning,0825.6,5.01,000.00,025.8,023.5,000.0,034.1,026.9,14.1,0002.7,0014.11,0005.19,0004.52
2023-11-18 21:26:00,SystemResetWarning,0825.6,5.00,000.00,025.8,023.8,000.0,034.1,027.1,14.1,0002.1,0013.94,0005.18,0004.52
2023-11-18 21:27:00,SystemResetWarning,0825.6,5.00,000.00,025.8,024.1,000.0,034.1,027.2,14.1,0001.7,0013.22,0005.16,0004.52
2023-11-18 21:28:00,SystemResetWarning,0825.6,5.00,000.00,025.8,024.3,000.0,034.1,027.3,14.1,0001.5,0013.24,0005.14,0004.53
2023-11-18 21:29:00,SystemResetWarning,0825.6,5.00,000.00,025.9,024.5,000.0,034.1,027.3,14.1,0001.9,0013.17,0005.14,0004.54
2023-11-18 21:30:00,SystemResetWarning,0825.6,5.00,000.00,025.9,024.7,000.0,034.1,027.4,14.1,0001.1,0011.44,0005.15,0004.54
2023-11-18 21:31:00,SystemResetWarning,0825.6,5.00,000.00,025.9,024.9,000.0,034.1,027.5,14.1,0000.6,0011.60,0005.18,0004.56
2023-11-18 21:32:00,SystemResetWarning,0825.6,5.00,000.00,026.0,025.0,000.0,034.1,027.5,14.1,0000.8,0011.36,0005.18,0004.58
2023-11-18 21:33:00,SystemResetWarning,0825.6,4.99,000.00,026.0,025.1,000.0,034.1,027.6,14.0,0000.9,0010.91,0005.18,0004.60
2023-11-18 21:34:00,SystemResetWarning,0825.6,4.99,000.00,026.1,025.2,000.0,034.1,027.6,14.0,0001.4,0010.89,0005.24,0004.64
2023-11-18 21:35:00,SystemResetWarning,0825.6,4.99,000.00,026.1,025.2,000.0,034.2,027.6,14.2,0001.1,0011.22,0005.29,0004.67
2023-11-18 21:36:00,SystemResetWarning,0825.6,5.00,000.00,026.1,025.3,000.0,034.2,027.7,14.2,0001.3,0011.42,0005.33,0004.71
2023-11-18 21:37:00,SystemResetWarning,0825.6,5.00,000.00,026.2,025.4,000.0,034.2,027.7,14.2,0002.0,0011.34,0005.37,0004.74
2023-11-18 21:38:00,SystemResetWarning,0825.6,5.00,000.00,026.2,025.2,000.0,034.2,027.8,14.3,0002.3,0011.50,0005.39,0004.77
2023-11-18 21:39:00,SystemResetWarning,0825.6,4.99,000.00,026.2,023.5,000.0,034.2,027.5,14.6,0002.5,0011.68,0005.41,0004.80
2023-11-18 21:40:00,SystemResetWarning,0825.6,5.02,000.00,026.0,022.6,000.0,034.2,027.3,14.8,0002.2,0012.06,0005.44,0004.83
2023-11-18 21:41:00,SystemResetWarning,0825.5,5.00,000.00,025.9,022.7,000.0,034.2,026.9,15.0,0003.0,0012.66,0005.53,0004.90
2023-11-18 21:42:00,SystemResetWarning,0825.5,4.99,000.00,025.8,023.0,000.0,034.1,026.8,15.0,0003.7,0012.30,0005.62,0004.98
2023-11-18 21:43:00,SystemResetWarning,0825.5,5.02,000.00,025.8,023.4,000.0,034.1,026.9,15.1,0003.9,0013.91,0005.72,0005.04
2023-11-18 21:44:00,SystemResetWarning,0825.5,5.00,000.00,025.8,023.7,000.0,034.1,027.0,15.1,0003.6,0014.41,0005.79,0005.11
2023-11-18 21:45:00,SystemResetWarning,0825.5,5.00,000.00,025.8,024.0,000.0,034.1,027.1,15.2,0003.7,0014.64,0005.89,0005.20
2023-11-18 21:46:00,SystemResetWarning,0825.6,5.01,000.00,025.8,024.2,000.0,034.1,027.2,15.2,0003.9,0015.20,0006.02,0005.32
2023-11-18 21:47:00,SystemResetWarning,0825.6,5.00,000.00,025.8,024.4,000.0,034.1,027.3,15.1,0003.8,0015.40,0006.13,0005.43
2023-11-18 21:48:00,SystemResetWarning,0825.7,4.99,000.00,025.9,024.6,000.0,034.1,027.3,15.2,0003.8,0015.96,0006.29,0005.51
2023-11-18 21:49:00,SystemResetWarning,0825.7,5.00,000.00,025.9,024.8,000.0,034.1,027.4,15.1,0003.8,0015.91,0006.38,0005.59
2023-11-18 21:50:00,SystemResetWarning,0825.7,5.00,000.00,025.9,024.9,000.0,034.1,027.4,15.1,0003.9,0016.53,0006.53,0005.68
2023-11-18 21:51:00,SystemResetWarning,0825.7,5.00,000.00,026.0,025.0,000.0,034.1,027.5,15.0,0004.2,0016.75,0006.65,0005.75
2023-11-18 21:52:00,SystemResetWarning,0825.7,4.99,000.00,026.0,025.1,000.0,034.1,027.5,14.8,0004.3,0016.76,0006.69,0005.81
2023-11-18 21:53:00,SystemResetWarning,0825.7,5.00,000.00,026.0,025.1,000.0,034.1,027.6,14.8,0003.9,0016.84,0006.76,0005.88
2023-11-18 21:54:00,SystemResetWarning,0825.7,5.00,000.00,026.1,025.2,000.0,034.2,027.6,14.7,0003.8,0016.07,0006.82,0005.94
2023-11-18 21:55:00,SystemResetWarning,0825.7,5.01,000.00,026.1,025.3,000.0,034.2,027.6,14.7,0003.7,0015.57,0006.90,0006.00
2023-11-18 21:56:00,SystemResetWarning,0825.7,5.01,000.00,026.1,025.3,000.0,034.2,027.7,14.7,0003.8,0016.12,0006.96,0006.02
2023-11-18 21:57:00,SystemResetWarning,0825.7,5.00,000.00,026.2,025.4,000.0,034.2,027.7,14.7,0003.6,0017.01,0006.95,0006.01
2023-11-18 21:58:00,SystemResetWarning,0825.7,4.99,000.00,026.2,024.9,000.0,034.2,027.7,14.6,0003.1,0017.05,0006.95,0006.01
2023-11-18 21:59:00,SystemResetWarning,0825.7,4.99,000.00,026.1,023.0,000.0,034.2,027.4,14.6,0002.4,0016.95,0006.90,0006.01
